1998-067WJ

Last updated on Thu Sep 12 2024 00:02:08 GMT+0000 (Coordinated Universal Time)

1 59559U 98067WJ 24255.30390775 .01045619 59141-3 15629-2 0 9999 2 59559 51.6183 230.8697 0004661 90.4902 269.6644 16.04224015 22900
UTC large
Height (km)
Speed (km/s)
/
Latitude / Longitude
Inclination (degrees)
Orbital Period (minutes)
Azimuth
Elevation
Range (km)
Doppler Factor

Next 0 passes for location: London (51.5072 / 0.1276)

Sorry there are no passes over London.